Time,TemperatureF,DewpointF,PressureIn,WindDirection,WindDirectionDegrees,WindSpeedMPH,WindSpeedGustMPH,Humidity,HourlyPrecipIn,Conditions,Clouds,dailyrainin,SoftwareType,DateUTC
2014-01-11 00:04:00,44.3,38.8,30.08,North,0,0.0,0.0,81,0.00,,,0.00,WUHU216HW,2014-01-11 08:04:00,
2014-01-11 00:09:00,44.3,38.8,30.08,North,0,0.0,0.0,81,0.00,,,0.00,WUHU216HW,2014-01-11 08:09:00,
2014-01-11 00:14:00,44.3,38.8,30.08,North,0,0.0,0.0,81,0.00,,,0.00,WUHU216HW,2014-01-11 08:14:00,
2014-01-11 00:19:00,44.1,38.6,30.08,North,0,0.0,0.0,81,0.00,,,0.00,WUHU216HW,2014-01-11 08:19:00,
2014-01-11 00:24:00,43.9,38.4,30.08,North,0,0.0,0.0,81,0.00,,,0.00,WUHU216HW,2014-01-11 08:24:00,
2014-01-11 00:29:00,43.9,38.4,30.08,North,0,0.0,0.0,81,0.00,,,0.00,WUHU216HW,2014-01-11 08:29:00,
2014-01-11 00:34:00,43.9,38.4,30.08,North,0,0.0,0.0,81,0.00,,,0.00,WUHU216HW,2014-01-11 08:34:00,
2014-01-11 00:39:00,43.9,38.4,30.08,North,0,0.0,0.0,81,0.00,,,0.00,WUHU216HW,2014-01-11 08:39:00,
2014-01-11 00:44:00,43.7,38.6,30.08,North,0,0.0,0.0,82,0.00,,,0.00,WUHU216HW,2014-01-11 08:44:00,
2014-01-11 00:49:00,43.6,38.4,30.08,North,0,0.0,0.0,82,0.00,,,0.00,WUHU216HW,2014-01-11 08:49:00,
2014-01-11 00:54:00,43.6,38.4,30.08,North,0,0.0,0.0,82,0.00,,,0.00,WUHU216HW,2014-01-11 08:54:00,
2014-01-11 00:59:00,43.6,38.4,30.08,North,0,0.0,0.0,82,0.00,,,0.00,WUHU216HW,2014-01-11 08:59:00,
2014-01-11 01:04:00,43.4,38.3,30.08,North,0,0.0,0.0,82,0.00,,,0.00,WUHU216HW,2014-01-11 09:04:00,
2014-01-11 01:09:00,43.2,38.1,30.08,North,0,0.0,0.0,82,0.00,,,0.00,WUHU216HW,2014-01-11 09:09:00,
2014-01-11 01:14:00,43.2,38.1,30.08,North,0,0.0,0.0,82,0.00,,,0.00,WUHU216HW,2014-01-11 09:14:00,
2014-01-11 01:19:00,43.0,37.9,30.08,North,0,0.0,0.0,82,0.00,,,0.00,WUHU216HW,2014-01-11 09:19:00,
2014-01-11 01:24:00,43.0,38.2,30.08,North,0,0.0,0.0,83,0.00,,,0.00,WUHU216HW,2014-01-11 09:24:00,
2014-01-11 01:29:00,43.0,38.2,30.08,North,0,0.0,0.0,83,0.00,,,0.00,WUHU216HW,2014-01-11 09:29:00,
2014-01-11 01:34:00,43.0,38.2,30.08,North,0,0.0,0.0,83,0.00,,,0.00,WUHU216HW,2014-01-11 09:34:00,
2014-01-11 01:39:00,42.8,38.0,30.08,North,0,0.0,0.0,83,0.00,,,0.00,WUHU216HW,2014-01-11 09:39:00,
2014-01-11 01:44:00,42.8,38.0,30.08,North,0,0.0,0.0,83,0.00,,,0.00,WUHU216HW,2014-01-11 09:44:00,
2014-01-11 01:49:00,42.8,38.0,30.09,North,0,0.0,0.0,83,0.00,,,0.00,WUHU216HW,2014-01-11 09:49:00,
2014-01-11 01:54:00,42.8,38.0,30.08,North,0,0.0,0.0,83,0.00,,,0.00,WUHU216HW,2014-01-11 09:54:00,
2014-01-11 02:00:00,42.8,38.0,30.08,North,0,0.0,0.0,83,0.00,,,0.00,WUHU216HW,2014-01-11 10:00:00,
2014-01-11 02:05:00,42.8,38.0,30.08,North,0,0.0,0.0,83,0.00,,,0.00,WUHU216HW,2014-01-11 10:05:00,
2014-01-11 02:10:00,42.8,38.0,30.08,North,0,0.0,0.0,83,0.00,,,0.00,WUHU216HW,2014-01-11 10:10:00,
2014-01-11 02:15:00,42.8,38.0,30.08,North,0,0.0,0.0,83,0.00,,,0.00,WUHU216HW,2014-01-11 10:15:00,
2014-01-11 02:20:00,42.8,38.4,30.08,North,0,0.0,0.0,84,0.00,,,0.00,WUHU216HW,2014-01-11 10:20:00,
2014-01-11 02:25:00,42.7,38.2,30.08,North,0,0.0,0.0,84,0.00,,,0.00,WUHU216HW,2014-01-11 10:25:00,
2014-01-11 02:30:00,42.7,38.2,30.08,North,0,0.0,0.0,84,0.00,,,0.00,WUHU216HW,2014-01-11 10:30:00,
2014-01-11 02:35:00,42.7,38.2,30.08,North,0,0.0,0.0,84,0.00,,,0.00,WUHU216HW,2014-01-11 10:35:00,
2014-01-11 02:40:00,42.7,38.2,30.08,North,0,0.0,0.0,84,0.00,,,0.00,WUHU216HW,2014-01-11 10:40:00,
2014-01-11 02:45:00,42.7,38.2,30.08,North,0,0.0,0.0,84,0.00,,,0.00,WUHU216HW,2014-01-11 10:45:00,
2014-01-11 02:50:00,42.7,38.2,30.08,North,0,0.0,0.0,84,0.00,,,0.00,WUHU216HW,2014-01-11 10:50:00,
2014-01-11 02:55:00,42.7,38.2,30.08,North,0,0.0,0.0,84,0.00,,,0.00,WUHU216HW,2014-01-11 10:55:00,
2014-01-11 03:00:00,42.7,38.2,30.08,North,0,0.0,0.0,84,0.00,,,0.00,WUHU216HW,2014-01-11 11:00:00,
2014-01-11 03:05:00,42.5,38.0,30.09,North,0,0.0,0.0,84,0.00,,,0.00,WUHU216HW,2014-01-11 11:05:00,
2014-01-11 03:10:00,42.5,38.3,30.09,North,0,0.0,0.0,85,0.00,,,0.00,WUHU216HW,2014-01-11 11:10:00,
2014-01-11 03:15:00,42.5,38.3,30.09,North,0,0.0,0.0,85,0.00,,,0.00,WUHU216HW,2014-01-11 11:15:00,
2014-01-11 03:20:00,42.5,38.3,30.09,North,0,0.0,0.0,85,0.00,,,0.00,WUHU216HW,2014-01-11 11:20:00,
2014-01-11 03:25:00,42.3,38.1,30.09,North,0,0.0,0.0,85,0.00,,,0.00,WUHU216HW,2014-01-11 11:25:00,
2014-01-11 03:30:00,42.3,38.1,30.09,North,0,0.0,0.0,85,0.00,,,0.00,WUHU216HW,2014-01-11 11:30:00,
2014-01-11 03:35:00,42.3,38.1,30.08,North,0,0.0,0.0,85,0.00,,,0.00,WUHU216HW,2014-01-11 11:35:00,
2014-01-11 03:40:00,42.3,38.1,30.08,North,0,0.0,0.0,85,0.00,,,0.00,WUHU216HW,2014-01-11 11:40:00,
2014-01-11 03:45:00,42.1,37.9,30.08,North,0,0.0,0.0,85,0.00,,,0.00,WUHU216HW,2014-01-11 11:45:00,
2014-01-11 03:50:00,42.1,37.9,30.09,North,0,0.0,0.0,85,0.00,,,0.00,WUHU216HW,2014-01-11 11:50:00,
2014-01-11 03:55:00,42.1,37.9,30.09,North,0,0.0,0.0,85,0.00,,,0.00,WUHU216HW,2014-01-11 11:55:00,
2014-01-11 04:00:00,42.1,37.9,30.09,North,0,0.0,0.0,85,0.00,,,0.00,WUHU216HW,2014-01-11 12:00:00,
2014-01-11 04:06:00,42.1,37.9,30.09,North,0,0.0,0.0,85,0.00,,,0.00,WUHU216HW,2014-01-11 12:06:00,
2014-01-11 04:11:00,42.1,37.9,30.09,North,0,0.0,0.0,85,0.00,,,0.00,WUHU216HW,2014-01-11 12:11:00,
2014-01-11 04:16:00,41.9,37.7,30.09,North,0,0.0,0.0,85,0.00,,,0.00,WUHU216HW,2014-01-11 12:16:00,
2014-01-11 04:21:00,41.9,37.7,30.09,North,0,0.0,0.0,85,0.00,,,0.00,WUHU216HW,2014-01-11 12:21:00,
2014-01-11 04:26:00,41.9,37.7,30.08,North,0,0.0,0.0,85,0.00,,,0.00,WUHU216HW,2014-01-11 12:26:00,
2014-01-11 04:31:00,41.8,37.5,30.08,North,0,0.0,0.0,85,0.00,,,0.00,WUHU216HW,2014-01-11 12:31:00,
2014-01-11 04:36:00,41.8,37.5,30.08,North,0,0.0,0.0,85,0.00,,,0.00,WUHU216HW,2014-01-11 12:36:00,
2014-01-11 04:41:00,41.8,37.5,30.08,North,0,0.0,0.0,85,0.00,,,0.00,WUHU216HW,2014-01-11 12:41:00,
2014-01-11 04:46:00,41.8,37.5,30.08,North,0,0.0,0.0,85,0.00,,,0.00,WUHU216HW,2014-01-11 12:46:00,
2014-01-11 04:51:00,41.8,37.3,30.08,North,0,0.0,0.0,84,0.00,,,0.00,WUHU216HW,2014-01-11 12:51:00,
2014-01-11 04:56:00,41.6,37.1,30.08,North,0,0.0,0.0,84,0.00,,,0.00,WUHU216HW,2014-01-11 12:56:00,
2014-01-11 05:01:00,41.6,37.1,30.08,North,0,0.0,0.0,84,0.00,,,0.00,WUHU216HW,2014-01-11 13:01:00,
2014-01-11 05:06:00,41.6,37.1,30.08,North,0,0.0,0.0,84,0.00,,,0.00,WUHU216HW,2014-01-11 13:06:00,
2014-01-11 05:11:00,41.4,36.9,30.08,North,0,0.0,0.0,84,0.00,,,0.00,WUHU216HW,2014-01-11 13:11:00,
2014-01-11 05:16:00,41.4,36.9,30.08,North,0,0.0,0.0,84,0.00,,,0.00,WUHU216HW,2014-01-11 13:16:00,
2014-01-11 05:21:00,41.4,37.2,30.08,North,0,0.0,0.0,85,0.00,,,0.00,WUHU216HW,2014-01-11 13:21:00,
2014-01-11 05:26:00,41.4,37.2,30.09,North,0,0.0,0.0,85,0.00,,,0.00,WUHU216HW,2014-01-11 13:26:00,
2014-01-11 05:31:00,41.2,37.0,30.09,North,0,0.0,0.0,85,0.00,,,0.00,WUHU216HW,2014-01-11 13:31:00,
2014-01-11 05:36:00,41.2,37.0,30.08,North,0,0.0,0.0,85,0.00,,,0.00,WUHU216HW,2014-01-11 13:36:00,
2014-01-11 05:41:00,41.2,37.0,30.08,North,0,0.0,0.0,85,0.00,,,0.00,WUHU216HW,2014-01-11 13:41:00,
2014-01-11 05:46:00,41.0,36.8,30.08,North,0,0.0,0.0,85,0.00,,,0.00,WUHU216HW,2014-01-11 13:46:00,
2014-01-11 05:51:00,41.0,36.8,30.08,North,0,0.0,0.0,85,0.00,,,0.00,WUHU216HW,2014-01-11 13:51:00,
2014-01-11 05:56:00,41.0,36.8,30.09,North,0,0.0,0.0,85,0.00,,,0.00,WUHU216HW,2014-01-11 13:56:00,
2014-01-11 06:01:00,41.0,36.8,30.09,North,0,0.0,0.0,85,0.00,,,0.00,WUHU216HW,2014-01-11 14:01:00,
2014-01-11 06:07:00,41.0,36.8,30.09,North,0,0.0,0.0,85,0.00,,,0.00,WUHU216HW,2014-01-11 14:07:00,
2014-01-11 06:12:00,41.0,36.8,30.09,North,0,0.0,0.0,85,0.00,,,0.00,WUHU216HW,2014-01-11 14:12:00,
2014-01-11 06:17:00,41.0,37.1,30.09,North,0,0.0,0.0,86,0.00,,,0.00,WUHU216HW,2014-01-11 14:17:00,
2014-01-11 06:22:00,41.0,37.1,30.09,North,0,0.0,0.0,86,0.00,,,0.00,WUHU216HW,2014-01-11 14:22:00,
2014-01-11 06:27:00,41.0,37.1,30.09,North,0,0.0,0.0,86,0.00,,,0.00,WUHU216HW,2014-01-11 14:27:00,
2014-01-11 06:32:00,41.0,37.1,30.09,North,0,0.0,0.0,86,0.00,,,0.00,WUHU216HW,2014-01-11 14:32:00,
2014-01-11 06:37:00,40.9,36.9,30.10,North,0,0.0,0.0,86,0.00,,,0.00,WUHU216HW,2014-01-11 14:37:00,
2014-01-11 06:42:00,41.0,37.1,30.10,North,0,0.0,0.0,86,0.00,,,0.00,WUHU216HW,2014-01-11 14:42:00,
2014-01-11 06:47:00,41.0,37.1,30.10,North,0,0.0,0.0,86,0.00,,,0.00,WUHU216HW,2014-01-11 14:47:00,
2014-01-11 06:52:00,41.0,37.1,30.10,North,0,0.0,0.0,86,0.00,,,0.00,WUHU216HW,2014-01-11 14:52:00,
2014-01-11 06:57:00,41.0,37.1,30.11,North,0,0.0,0.0,86,0.00,,,0.00,WUHU216HW,2014-01-11 14:57:00,
2014-01-11 07:02:00,40.9,36.9,30.10,North,0,0.0,0.0,86,0.00,,,0.00,WUHU216HW,2014-01-11 15:02:00,
2014-01-11 07:07:00,41.0,37.1,30.11,North,0,0.0,0.0,86,0.00,,,0.00,WUHU216HW,2014-01-11 15:07:00,
2014-01-11 07:12:00,40.9,36.9,30.11,North,0,0.0,0.0,86,0.00,,,0.00,WUHU216HW,2014-01-11 15:12:00,
2014-01-11 07:17:00,41.0,37.5,30.11,North,0,0.0,0.0,87,0.00,,,0.00,WUHU216HW,2014-01-11 15:17:00,
2014-01-11 07:22:00,40.9,37.3,30.11,North,0,0.0,0.0,87,0.00,,,0.00,WUHU216HW,2014-01-11 15:22:00,
2014-01-11 07:27:00,40.9,37.3,30.11,North,0,0.0,0.0,87,0.00,,,0.00,WUHU216HW,2014-01-11 15:27:00,
2014-01-11 07:32:00,41.0,37.5,30.12,North,0,0.0,0.0,87,0.00,,,0.00,WUHU216HW,2014-01-11 15:32:00,
2014-01-11 07:37:00,41.0,37.5,30.11,North,0,0.0,0.0,87,0.00,,,0.00,WUHU216HW,2014-01-11 15:37:00,
2014-01-11 07:42:00,41.2,37.6,30.11,North,0,0.0,0.0,87,0.00,,,0.00,WUHU216HW,2014-01-11 15:42:00,
2014-01-11 07:47:00,41.4,37.8,30.11,North,0,0.0,0.0,87,0.00,,,0.00,WUHU216HW,2014-01-11 15:47:00,
2014-01-11 07:52:00,41.4,37.8,30.11,North,0,0.0,0.0,87,0.00,,,0.00,WUHU216HW,2014-01-11 15:52:00,
2014-01-11 07:58:00,41.6,38.0,30.11,North,0,0.0,0.0,87,0.00,,,0.00,WUHU216HW,2014-01-11 15:58:00,
2014-01-11 08:03:00,41.8,38.2,30.11,North,0,0.0,0.0,87,0.00,,,0.00,WUHU216HW,2014-01-11 16:03:00,
2014-01-11 08:08:00,41.8,38.2,30.11,North,0,0.0,0.0,87,0.00,,,0.00,WUHU216HW,2014-01-11 16:08:00,
2014-01-11 08:13:00,41.9,38.4,30.12,North,0,0.0,0.0,87,0.00,,,0.00,WUHU216HW,2014-01-11 16:13:00,
2014-01-11 08:18:00,42.1,38.5,30.11,North,0,0.0,0.0,87,0.00,,,0.00,WUHU216HW,2014-01-11 16:18:00,
2014-01-11 08:23:00,42.1,38.8,30.12,North,0,0.0,0.0,88,0.00,,,0.00,WUHU216HW,2014-01-11 16:23:00,
2014-01-11 08:28:00,42.5,39.2,30.12,North,0,0.0,0.0,88,0.00,,,0.00,WUHU216HW,2014-01-11 16:28:00,
2014-01-11 08:33:00,42.5,39.2,30.12,North,0,0.0,0.0,88,0.00,,,0.00,WUHU216HW,2014-01-11 16:33:00,
2014-01-11 08:38:00,42.8,39.5,30.12,North,0,0.0,0.0,88,0.00,,,0.00,WUHU216HW,2014-01-11 16:38:00,
2014-01-11 08:43:00,43.0,39.7,30.12,North,0,0.0,0.0,88,0.00,,,0.00,WUHU216HW,2014-01-11 16:43:00,
2014-01-11 08:48:00,43.2,39.9,30.13,North,0,0.0,0.0,88,0.00,,,0.00,WUHU216HW,2014-01-11 16:48:00,
2014-01-11 08:53:00,43.4,40.1,30.13,North,0,0.0,0.0,88,0.00,,,0.00,WUHU216HW,2014-01-11 16:53:00,
2014-01-11 08:58:00,43.6,40.2,30.13,North,0,0.0,0.0,88,0.00,,,0.00,WUHU216HW,2014-01-11 16:58:00,
2014-01-11 09:03:00,43.7,40.4,30.13,North,0,0.0,0.0,88,0.00,,,0.00,WUHU216HW,2014-01-11 17:03:00,
2014-01-11 09:08:00,44.1,40.8,30.13,North,0,0.0,0.0,88,0.00,,,0.00,WUHU216HW,2014-01-11 17:08:00,
2014-01-11 09:13:00,44.3,41.0,30.12,North,0,0.0,0.0,88,0.00,,,0.00,WUHU216HW,2014-01-11 17:13:00,
2014-01-11 09:18:00,44.5,41.1,30.12,North,0,0.0,0.0,88,0.00,,,0.00,WUHU216HW,2014-01-11 17:18:00,
2014-01-11 09:23:00,44.8,41.5,30.13,North,0,0.0,0.0,88,0.00,,,0.00,WUHU216HW,2014-01-11 17:23:00,
2014-01-11 09:28:00,45.0,41.7,30.12,North,0,0.0,0.0,88,0.00,,,0.00,WUHU216HW,2014-01-11 17:28:00,
2014-01-11 09:34:00,45.4,42.0,30.12,North,0,0.0,0.0,88,0.00,,,0.00,WUHU216HW,2014-01-11 17:34:00,
2014-01-11 09:39:00,45.5,42.2,30.13,North,0,0.0,0.0,88,0.00,,,0.00,WUHU216HW,2014-01-11 17:39:00,
2014-01-11 09:44:00,45.7,42.4,30.13,North,0,0.0,0.0,88,0.00,,,0.00,WUHU216HW,2014-01-11 17:44:00,
2014-01-11 09:49:00,46.1,42.8,30.12,North,0,0.0,0.0,88,0.00,,,0.00,WUHU216HW,2014-01-11 17:49:00,
2014-01-11 09:54:00,46.4,43.1,30.11,North,0,0.0,0.0,88,0.00,,,0.00,WUHU216HW,2014-01-11 17:54:00,
2014-01-11 09:59:00,47.0,43.7,30.11,North,0,0.0,0.0,88,0.00,,,0.00,WUHU216HW,2014-01-11 17:59:00,
2014-01-11 10:04:00,47.3,44.0,30.11,North,0,0.0,0.0,88,0.00,,,0.00,WUHU216HW,2014-01-11 18:04:00,
2014-01-11 10:09:00,47.7,44.0,30.10,North,0,0.0,0.0,87,0.00,,,0.00,WUHU216HW,2014-01-11 18:09:00,
2014-01-11 10:14:00,47.9,44.2,30.10,North,0,0.0,0.0,87,0.00,,,0.00,WUHU216HW,2014-01-11 18:14:00,
2014-01-11 10:19:00,48.2,44.6,30.10,North,0,0.0,0.0,87,0.00,,,0.00,WUHU216HW,2014-01-11 18:19:00,
2014-01-11 10:25:00,48.6,44.6,30.09,North,0,0.0,0.0,86,0.00,,,0.00,WUHU216HW,2014-01-11 18:25:00,
2014-01-11 10:30:00,48.8,44.5,30.09,North,0,0.0,0.0,85,0.00,,,0.00,WUHU216HW,2014-01-11 18:30:00,
2014-01-11 10:35:00,49.0,44.7,30.08,North,0,0.0,0.0,85,0.00,,,0.00,WUHU216HW,2014-01-11 18:35:00,
2014-01-11 10:40:00,49.1,44.8,30.10,North,0,0.0,0.0,85,0.00,,,0.00,WUHU216HW,2014-01-11 18:40:00,
2014-01-11 10:45:00,49.1,44.8,30.12,North,0,0.0,0.0,85,0.00,,,0.00,WUHU216HW,2014-01-11 18:45:00,
2014-01-11 10:50:00,49.5,45.1,30.14,North,0,0.0,0.0,85,0.00,,,0.00,WUHU216HW,2014-01-11 18:50:00,
2014-01-11 10:55:00,49.7,45.3,30.13,North,0,0.0,0.0,85,0.00,,,0.00,WUHU216HW,2014-01-11 18:55:00,
2014-01-11 11:00:00,50.0,45.6,30.14,North,0,0.0,0.0,85,0.00,,,0.00,WUHU216HW,2014-01-11 19:00:00,
2014-01-11 11:05:00,50.4,46.3,30.14,North,0,0.0,0.0,86,0.00,,,0.00,WUHU216HW,2014-01-11 19:05:00,
2014-01-11 11:10:00,51.1,47.0,30.13,North,0,0.0,0.0,86,0.00,,,0.00,WUHU216HW,2014-01-11 19:10:00,
2014-01-11 11:15:00,51.8,48.3,30.13,North,0,0.0,0.0,88,0.00,,,0.00,WUHU216HW,2014-01-11 19:15:00,
2014-01-11 11:20:00,52.0,48.5,30.14,North,0,0.0,0.0,88,0.00,,,0.00,WUHU216HW,2014-01-11 19:20:00,
2014-01-11 11:25:00,52.2,48.7,30.11,North,0,0.0,0.0,88,0.00,,,0.00,WUHU216HW,2014-01-11 19:25:00,
2014-01-11 11:30:00,52.2,48.7,30.11,North,0,0.0,0.0,88,0.00,,,0.00,WUHU216HW,2014-01-11 19:30:00,
2014-01-11 11:35:00,52.6,48.8,30.10,North,0,0.0,0.0,87,0.00,,,0.00,WUHU216HW,2014-01-11 19:35:00,
2014-01-11 11:40:00,52.9,49.2,30.10,North,0,0.0,0.0,87,0.00,,,0.00,WUHU216HW,2014-01-11 19:40:00,
2014-01-11 11:45:00,53.3,49.5,30.11,North,0,0.0,0.0,87,0.00,,,0.00,WUHU216HW,2014-01-11 19:45:00,
2014-01-11 11:50:00,53.6,49.5,30.11,North,0,0.0,0.0,86,0.00,,,0.00,WUHU216HW,2014-01-11 19:50:00,
2014-01-11 11:55:00,54.0,49.9,30.10,North,0,0.0,0.0,86,0.00,,,0.00,WUHU216HW,2014-01-11 19:55:00,
2014-01-11 12:00:00,54.0,49.6,30.10,North,0,0.0,0.0,85,0.00,,,0.00,WUHU216HW,2014-01-11 20:00:00,
2014-01-11 12:05:00,54.2,49.8,30.09,North,0,0.0,0.0,85,0.00,,,0.00,WUHU216HW,2014-01-11 20:05:00,
2014-01-11 12:10:00,54.4,49.6,30.09,North,0,0.0,0.0,84,0.00,,,0.00,WUHU216HW,2014-01-11 20:10:00,
2014-01-11 12:15:00,55.1,50.3,30.08,North,0,0.0,0.0,84,0.00,,,0.00,WUHU216HW,2014-01-11 20:15:00,
2014-01-11 12:20:00,55.6,50.5,30.08,North,0,0.0,0.0,83,0.00,,,0.00,WUHU216HW,2014-01-11 20:20:00,
2014-01-11 12:25:00,56.0,50.5,30.08,North,0,0.0,0.0,82,0.00,,,0.00,WUHU216HW,2014-01-11 20:25:00,
2014-01-11 12:30:00,56.2,50.7,30.09,North,0,0.0,0.0,82,0.00,,,0.00,WUHU216HW,2014-01-11 20:30:00,
2014-01-11 12:35:00,56.2,50.4,30.08,North,0,0.0,0.0,81,0.00,,,0.00,WUHU216HW,2014-01-11 20:35:00,
2014-01-11 12:40:00,56.5,50.8,30.08,North,0,0.0,0.0,81,0.00,,,0.00,WUHU216HW,2014-01-11 20:40:00,
2014-01-11 12:46:00,56.5,50.8,30.08,North,0,0.0,0.0,81,0.00,,,0.00,WUHU216HW,2014-01-11 20:46:00,
2014-01-11 12:51:00,56.7,51.0,30.07,North,0,0.0,0.0,81,0.00,,,0.00,WUHU216HW,2014-01-11 20:51:00,
2014-01-11 12:56:00,56.9,51.1,30.07,North,0,0.0,0.0,81,0.00,,,0.00,WUHU216HW,2014-01-11 20:56:00,
2014-01-11 13:01:00,56.9,50.8,30.07,North,0,0.0,0.0,80,0.00,,,0.00,WUHU216HW,2014-01-11 21:01:00,
2014-01-11 13:06:00,56.9,50.8,30.07,North,0,0.0,0.0,80,0.00,,,0.00,WUHU216HW,2014-01-11 21:06:00,
2014-01-11 13:11:00,57.1,50.9,30.06,North,0,0.0,0.0,80,0.00,,,0.00,WUHU216HW,2014-01-11 21:11:00,
2014-01-11 13:16:00,56.9,50.8,30.06,North,0,0.0,0.0,80,0.00,,,0.00,WUHU216HW,2014-01-11 21:16:00,
2014-01-11 13:21:00,57.1,50.9,30.06,North,0,0.0,0.0,80,0.00,,,0.00,WUHU216HW,2014-01-11 21:21:00,
2014-01-11 13:26:00,57.2,50.8,30.06,North,0,0.0,0.0,79,0.00,,,0.00,WUHU216HW,2014-01-11 21:26:00,
2014-01-11 13:31:00,57.2,50.8,30.06,North,0,0.0,0.0,79,0.00,,,0.00,WUHU216HW,2014-01-11 21:31:00,
2014-01-11 13:34:00,57.2,50.8,30.05,North,0,0.0,0.0,79,0.00,,,0.00,WUHU216HW,2014-01-11 21:34:00,
2014-01-11 13:39:00,57.4,50.9,30.05,North,0,0.0,0.0,79,0.00,,,0.00,WUHU216HW,2014-01-11 21:39:00,
2014-01-11 13:44:00,57.6,51.1,30.05,North,0,0.0,0.0,79,0.00,,,0.00,WUHU216HW,2014-01-11 21:44:00,
2014-01-11 13:49:00,58.0,51.5,30.04,North,0,0.0,0.0,79,0.00,,,0.00,WUHU216HW,2014-01-11 21:49:00,
2014-01-11 13:54:00,58.0,51.5,30.05,North,0,0.0,0.0,79,0.00,,,0.00,WUHU216HW,2014-01-11 21:54:00,
2014-01-11 13:59:00,58.0,51.5,30.04,North,0,0.0,0.0,79,0.00,,,0.00,WUHU216HW,2014-01-11 21:59:00,
2014-01-11 14:04:00,58.1,51.7,30.04,North,0,0.0,0.0,79,0.00,,,0.00,WUHU216HW,2014-01-11 22:04:00,
2014-01-11 14:09:00,58.3,51.5,30.03,North,0,0.0,0.0,78,0.00,,,0.00,WUHU216HW,2014-01-11 22:09:00,
2014-01-11 14:14:00,58.5,52.0,30.03,North,0,0.0,0.0,79,0.00,,,0.00,WUHU216HW,2014-01-11 22:14:00,
2014-01-11 14:19:00,58.7,52.2,30.03,North,0,0.0,0.0,79,0.00,,,0.00,WUHU216HW,2014-01-11 22:19:00,
2014-01-11 14:24:00,59.0,52.2,30.03,North,0,0.0,0.0,78,0.00,,,0.00,WUHU216HW,2014-01-11 22:24:00,
2014-01-11 14:29:00,59.2,52.0,30.03,North,0,0.0,0.0,77,0.00,,,0.00,WUHU216HW,2014-01-11 22:29:00,
2014-01-11 14:34:00,59.2,52.0,30.04,North,0,0.0,0.0,77,0.00,,,0.00,WUHU216HW,2014-01-11 22:34:00,
2014-01-11 14:39:00,59.4,52.6,30.04,North,0,0.0,0.0,78,0.00,,,0.00,WUHU216HW,2014-01-11 22:39:00,
2014-01-11 14:44:00,59.2,52.0,30.04,North,0,0.0,0.0,77,0.00,,,0.00,WUHU216HW,2014-01-11 22:44:00,
2014-01-11 14:50:00,59.0,52.2,30.05,North,0,0.0,0.0,78,0.00,,,0.00,WUHU216HW,2014-01-11 22:50:00,
2014-01-11 14:55:00,58.7,51.8,30.04,North,0,0.0,0.0,78,0.00,,,0.00,WUHU216HW,2014-01-11 22:55:00,
2014-01-11 15:00:00,58.7,52.2,30.05,North,0,0.0,0.0,79,0.00,,,0.00,WUHU216HW,2014-01-11 23:00:00,
2014-01-11 15:05:00,58.7,52.2,30.05,North,0,0.0,0.0,79,0.00,,,0.00,WUHU216HW,2014-01-11 23:05:00,
2014-01-11 15:10:00,58.9,52.4,30.06,North,0,0.0,0.0,79,0.00,,,0.00,WUHU216HW,2014-01-11 23:10:00,
2014-01-11 15:15:00,58.9,52.4,30.06,North,0,0.0,0.0,79,0.00,,,0.00,WUHU216HW,2014-01-11 23:15:00,
2014-01-11 15:20:00,58.7,52.2,30.06,North,0,0.0,0.0,79,0.00,,,0.00,WUHU216HW,2014-01-11 23:20:00,
2014-01-11 15:25:00,58.5,52.0,30.06,North,0,0.0,0.0,79,0.00,,,0.00,WUHU216HW,2014-01-11 23:25:00,
2014-01-11 15:30:00,58.3,52.2,30.07,North,0,0.0,0.0,80,0.00,,,0.00,WUHU216HW,2014-01-11 23:30:00,
2014-01-11 15:35:00,58.1,52.4,30.07,North,0,0.0,0.0,81,0.00,,,0.00,WUHU216HW,2014-01-11 23:35:00,
2014-01-11 15:40:00,57.8,52.0,30.08,North,0,0.0,0.0,81,0.00,,,0.00,WUHU216HW,2014-01-11 23:40:00,
2014-01-11 15:45:00,57.6,52.1,30.08,North,0,0.0,0.0,82,0.00,,,0.00,WUHU216HW,2014-01-11 23:45:00,
2014-01-11 15:50:00,57.4,51.9,30.07,North,0,0.0,0.0,82,0.00,,,0.00,WUHU216HW,2014-01-11 23:50:00,
2014-01-11 15:55:00,57.1,51.9,30.07,North,0,0.0,0.0,83,0.00,,,0.00,WUHU216HW,2014-01-11 23:55:00,
2014-01-11 16:00:00,56.9,51.8,30.07,North,0,0.0,0.0,83,0.00,,,0.00,WUHU216HW,2014-01-12 00:00:00,
2014-01-11 16:05:00,56.5,51.4,30.07,North,0,0.0,0.0,83,0.00,,,0.00,WUHU216HW,2014-01-12 00:05:00,
2014-01-11 16:10:00,56.5,51.0,30.08,North,0,0.0,0.0,82,0.00,,,0.00,WUHU216HW,2014-01-12 00:10:00,
2014-01-11 16:16:00,56.3,50.9,30.08,North,0,0.0,0.0,82,0.00,,,0.00,WUHU216HW,2014-01-12 00:16:00,
2014-01-11 16:21:00,56.2,51.0,30.08,North,0,0.0,0.0,83,0.00,,,0.00,WUHU216HW,2014-01-12 00:21:00,
2014-01-11 16:26:00,56.0,50.9,30.09,North,0,0.0,0.0,83,0.00,,,0.00,WUHU216HW,2014-01-12 00:26:00,
2014-01-11 16:31:00,55.8,50.3,30.09,North,0,0.0,0.0,82,0.00,,,0.00,WUHU216HW,2014-01-12 00:31:00,
2014-01-11 16:36:00,55.8,50.7,30.09,North,0,0.0,0.0,83,0.00,,,0.00,WUHU216HW,2014-01-12 00:36:00,
2014-01-11 16:41:00,55.8,50.7,30.09,North,0,0.0,0.0,83,0.00,,,0.00,WUHU216HW,2014-01-12 00:41:00,
2014-01-11 16:46:00,55.6,50.5,30.08,North,0,0.0,0.0,83,0.00,,,0.00,WUHU216HW,2014-01-12 00:46:00,
2014-01-11 16:51:00,55.4,50.0,30.08,North,0,0.0,0.0,82,0.00,,,0.00,WUHU216HW,2014-01-12 00:51:00,
2014-01-11 16:56:00,55.4,50.0,30.09,North,0,0.0,0.0,82,0.00,,,0.00,WUHU216HW,2014-01-12 00:56:00,
2014-01-11 17:01:00,55.3,49.8,30.09,North,0,0.0,0.0,82,0.00,,,0.00,WUHU216HW,2014-01-12 01:01:00,
2014-01-11 17:06:00,55.1,49.7,30.10,North,0,0.0,0.0,82,0.00,,,0.00,WUHU216HW,2014-01-12 01:06:00,
2014-01-11 17:11:00,54.7,49.3,30.09,North,0,0.0,0.0,82,0.00,,,0.00,WUHU216HW,2014-01-12 01:11:00,
2014-01-11 17:16:00,54.5,48.9,30.08,North,0,0.0,0.0,81,0.00,,,0.00,WUHU216HW,2014-01-12 01:16:00,
2014-01-11 17:21:00,54.4,48.7,30.09,North,0,0.0,0.0,81,0.00,,,0.00,WUHU216HW,2014-01-12 01:21:00,
2014-01-11 17:26:00,54.0,48.3,30.10,North,0,0.0,0.0,81,0.00,,,0.00,WUHU216HW,2014-01-12 01:26:00,
2014-01-11 17:31:00,53.8,48.2,30.09,North,0,0.0,0.0,81,0.00,,,0.00,WUHU216HW,2014-01-12 01:31:00,
2014-01-11 17:36:00,53.6,48.0,30.09,North,0,0.0,0.0,81,0.00,,,0.00,WUHU216HW,2014-01-12 01:36:00,
2014-01-11 17:41:00,53.5,47.8,30.09,North,0,0.0,0.0,81,0.00,,,0.00,WUHU216HW,2014-01-12 01:41:00,
2014-01-11 17:46:00,53.1,47.4,30.09,North,0,0.0,0.0,81,0.00,,,0.00,WUHU216HW,2014-01-12 01:46:00,
2014-01-11 17:51:00,52.9,47.3,30.09,North,0,0.0,0.0,81,0.00,,,0.00,WUHU216HW,2014-01-12 01:51:00,
2014-01-11 17:57:00,52.7,47.1,30.09,North,0,0.0,0.0,81,0.00,,,0.00,WUHU216HW,2014-01-12 01:57:00,
2014-01-11 18:02:00,52.4,46.7,30.10,North,0,0.0,0.0,81,0.00,,,0.00,WUHU216HW,2014-01-12 02:02:00,
2014-01-11 18:07:00,52.2,46.5,30.10,North,0,0.0,0.0,81,0.00,,,0.00,WUHU216HW,2014-01-12 02:07:00,
2014-01-11 18:12:00,52.0,46.4,30.10,North,0,0.0,0.0,81,0.00,,,0.00,WUHU216HW,2014-01-12 02:12:00,
2014-01-11 18:17:00,51.8,46.2,30.11,North,0,0.0,0.0,81,0.00,,,0.00,WUHU216HW,2014-01-12 02:17:00,
2014-01-11 18:22:00,51.5,45.8,30.11,North,0,0.0,0.0,81,0.00,,,0.00,WUHU216HW,2014-01-12 02:22:00,
2014-01-11 18:27:00,51.3,46.0,30.11,North,0,0.0,0.0,82,0.00,,,0.00,WUHU216HW,2014-01-12 02:27:00,
2014-01-11 18:32:00,51.1,45.8,30.11,North,0,0.0,0.0,82,0.00,,,0.00,WUHU216HW,2014-01-12 02:32:00,
2014-01-11 18:37:00,51.1,45.8,30.12,North,0,0.0,0.0,82,0.00,,,0.00,WUHU216HW,2014-01-12 02:37:00,
2014-01-11 18:42:00,50.9,45.6,30.12,North,0,0.0,0.0,82,0.00,,,0.00,WUHU216HW,2014-01-12 02:42:00,
2014-01-11 18:47:00,50.8,45.5,30.12,North,0,0.0,0.0,82,0.00,,,0.00,WUHU216HW,2014-01-12 02:47:00,
2014-01-11 18:52:00,50.8,45.5,30.12,North,0,0.0,0.0,82,0.00,,,0.00,WUHU216HW,2014-01-12 02:52:00,
2014-01-11 18:57:00,50.6,45.3,30.13,North,0,0.0,0.0,82,0.00,,,0.00,WUHU216HW,2014-01-12 02:57:00,
2014-01-11 19:02:00,50.4,45.1,30.12,North,0,0.0,0.0,82,0.00,,,0.00,WUHU216HW,2014-01-12 03:02:00,
2014-01-11 19:07:00,50.2,44.9,30.12,North,0,0.0,0.0,82,0.00,,,0.00,WUHU216HW,2014-01-12 03:07:00,
2014-01-11 19:12:00,50.0,44.7,30.12,North,0,0.0,0.0,82,0.00,,,0.00,WUHU216HW,2014-01-12 03:12:00,
2014-01-11 19:17:00,49.9,44.6,30.13,North,0,0.0,0.0,82,0.00,,,0.00,WUHU216HW,2014-01-12 03:17:00,
2014-01-11 19:22:00,49.7,44.4,30.12,North,0,0.0,0.0,82,0.00,,,0.00,WUHU216HW,2014-01-12 03:22:00,
2014-01-11 19:28:00,49.7,44.6,30.13,North,0,0.0,0.0,83,0.00,,,0.00,WUHU216HW,2014-01-12 03:28:00,
2014-01-11 19:33:00,49.3,44.3,30.13,North,0,0.0,0.0,83,0.00,,,0.00,WUHU216HW,2014-01-12 03:33:00,
2014-01-11 19:38:00,49.3,44.3,30.13,North,0,0.0,0.0,83,0.00,,,0.00,WUHU216HW,2014-01-12 03:38:00,
2014-01-11 19:43:00,49.1,44.1,30.13,North,0,0.0,0.0,83,0.00,,,0.00,WUHU216HW,2014-01-12 03:43:00,
2014-01-11 19:48:00,49.0,44.3,30.13,North,0,0.0,0.0,84,0.00,,,0.00,WUHU216HW,2014-01-12 03:48:00,
2014-01-11 19:53:00,48.6,43.7,30.14,North,0,0.0,0.0,83,0.00,,,0.00,WUHU216HW,2014-01-12 03:53:00,
2014-01-11 19:58:00,48.6,43.7,30.14,North,0,0.0,0.0,83,0.00,,,0.00,WUHU216HW,2014-01-12 03:58:00,
2014-01-11 20:03:00,48.4,43.5,30.14,North,0,0.0,0.0,83,0.00,,,0.00,WUHU216HW,2014-01-12 04:03:00,
2014-01-11 20:08:00,48.2,43.3,30.14,North,0,0.0,0.0,83,0.00,,,0.00,WUHU216HW,2014-01-12 04:08:00,
2014-01-11 20:13:00,48.1,43.1,30.14,North,0,0.0,0.0,83,0.00,,,0.00,WUHU216HW,2014-01-12 04:13:00,
2014-01-11 20:18:00,47.9,42.9,30.14,North,0,0.0,0.0,83,0.00,,,0.00,WUHU216HW,2014-01-12 04:18:00,
2014-01-11 20:23:00,47.7,43.1,30.13,North,0,0.0,0.0,84,0.00,,,0.00,WUHU216HW,2014-01-12 04:23:00,
2014-01-11 20:28:00,47.5,42.9,30.14,North,0,0.0,0.0,84,0.00,,,0.00,WUHU216HW,2014-01-12 04:28:00,
2014-01-11 20:33:00,47.5,42.9,30.14,North,0,0.0,0.0,84,0.00,,,0.00,WUHU216HW,2014-01-12 04:33:00,
2014-01-11 20:38:00,47.3,43.0,30.15,North,0,0.0,0.0,85,0.00,,,0.00,WUHU216HW,2014-01-12 04:38:00,
2014-01-11 20:43:00,47.3,43.0,30.15,North,0,0.0,0.0,85,0.00,,,0.00,WUHU216HW,2014-01-12 04:43:00,
2014-01-11 20:48:00,47.3,43.0,30.16,North,0,0.0,0.0,85,0.00,,,0.00,WUHU216HW,2014-01-12 04:48:00,
2014-01-11 20:54:00,47.3,43.0,30.17,North,0,0.0,0.0,85,0.00,,,0.00,WUHU216HW,2014-01-12 04:54:00,
2014-01-11 20:59:00,47.3,43.0,30.17,North,0,0.0,0.0,85,0.00,,,0.00,WUHU216HW,2014-01-12 04:59:00,
2014-01-11 21:01:00,47.3,43.0,30.17,North,0,0.0,0.0,85,0.00,,,0.00,WUHU216HW,2014-01-12 05:01:00,
2014-01-11 21:02:00,47.3,43.0,30.17,North,0,0.0,0.0,85,0.00,,,0.00,WUHU216HW,2014-01-12 05:02:00,
2014-01-11 21:03:00,47.3,43.0,30.16,North,0,0.0,0.0,85,0.00,,,0.00,WUHU216HW,2014-01-12 05:03:00,
2014-01-11 21:09:00,47.5,43.6,30.16,North,0,0.0,0.0,86,0.00,,,0.00,WUHU216HW,2014-01-12 05:09:00,
2014-01-11 21:14:00,47.9,44.2,30.16,North,0,0.0,0.0,87,0.00,,,0.00,WUHU216HW,2014-01-12 05:14:00,
2014-01-11 21:19:00,47.9,44.2,30.16,North,0,0.0,0.0,87,0.00,,,0.00,WUHU216HW,2014-01-12 05:19:00,
2014-01-11 21:24:00,47.9,44.2,30.16,North,0,0.0,0.0,87,0.00,,,0.00,WUHU216HW,2014-01-12 05:24:00,
2014-01-11 21:29:00,47.9,44.2,30.16,North,0,0.0,0.0,87,0.00,,,0.00,WUHU216HW,2014-01-12 05:29:00,
2014-01-11 21:34:00,47.9,44.2,30.16,North,0,0.0,0.0,87,0.00,,,0.00,WUHU216HW,2014-01-12 05:34:00,
2014-01-11 21:39:00,47.7,44.0,30.16,North,0,0.0,0.0,87,0.00,,,0.00,WUHU216HW,2014-01-12 05:39:00,
2014-01-11 21:44:00,47.5,43.8,30.16,North,0,0.0,0.0,87,0.00,,,0.00,WUHU216HW,2014-01-12 05:44:00,
2014-01-11 21:49:00,47.3,44.0,30.16,North,0,0.0,0.0,88,0.00,,,0.00,WUHU216HW,2014-01-12 05:49:00,
2014-01-11 21:54:00,47.3,44.0,30.16,North,0,0.0,0.0,88,0.00,,,0.00,WUHU216HW,2014-01-12 05:54:00,
2014-01-11 21:59:00,47.3,44.0,30.16,North,0,0.0,0.0,88,0.00,,,0.00,WUHU216HW,2014-01-12 05:59:00,
2014-01-11 22:03:00,47.2,43.8,30.16,North,0,0.0,0.0,88,0.00,,,0.00,WUHU216HW,2014-01-12 06:03:00,
2014-01-11 22:08:00,47.2,43.8,30.16,North,0,0.0,0.0,88,0.00,,,0.00,WUHU216HW,2014-01-12 06:08:00,
2014-01-11 22:13:00,47.0,43.4,30.16,North,0,0.0,0.0,87,0.00,,,0.00,WUHU216HW,2014-01-12 06:13:00,
2014-01-11 22:18:00,46.8,43.2,30.16,North,0,0.0,0.0,87,0.00,,,0.00,WUHU216HW,2014-01-12 06:18:00,
2014-01-11 22:24:00,46.8,43.2,30.16,North,0,0.0,0.0,87,0.00,,,0.00,WUHU216HW,2014-01-12 06:24:00,
2014-01-11 22:29:00,46.6,43.0,30.16,North,0,0.0,0.0,87,0.00,,,0.00,WUHU216HW,2014-01-12 06:29:00,
2014-01-11 22:34:00,46.4,42.9,30.16,North,0,0.0,0.0,87,0.00,,,0.00,WUHU216HW,2014-01-12 06:34:00,
2014-01-11 22:39:00,46.4,42.9,30.16,North,0,0.0,0.0,87,0.00,,,0.00,WUHU216HW,2014-01-12 06:39:00,
2014-01-11 22:44:00,46.4,42.9,30.16,North,0,0.0,0.0,87,0.00,,,0.00,WUHU216HW,2014-01-12 06:44:00,
2014-01-11 22:49:00,46.3,42.7,30.16,North,0,0.0,0.0,87,0.00,,,0.00,WUHU216HW,2014-01-12 06:49:00,
2014-01-11 22:54:00,46.1,42.5,30.16,North,0,0.0,0.0,87,0.00,,,0.00,WUHU216HW,2014-01-12 06:54:00,
2014-01-11 22:59:00,45.9,42.3,30.16,North,0,0.0,0.0,87,0.00,,,0.00,WUHU216HW,2014-01-12 06:59:00,
2014-01-11 23:04:00,45.7,42.1,30.16,North,0,0.0,0.0,87,0.00,,,0.00,WUHU216HW,2014-01-12 07:04:00,
2014-01-11 23:09:00,45.7,42.1,30.16,North,0,0.0,0.0,87,0.00,,,0.00,WUHU216HW,2014-01-12 07:09:00,
2014-01-11 23:14:00,45.5,42.0,30.16,North,0,0.0,0.0,87,0.00,,,0.00,WUHU216HW,2014-01-12 07:14:00,
2014-01-11 23:19:00,45.4,41.8,30.16,North,0,0.0,0.0,87,0.00,,,0.00,WUHU216HW,2014-01-12 07:19:00,
2014-01-11 23:24:00,45.2,41.6,30.16,North,0,0.0,0.0,87,0.00,,,0.00,WUHU216HW,2014-01-12 07:24:00,
2014-01-11 23:29:00,45.0,41.4,30.15,North,0,0.0,0.0,87,0.00,,,0.00,WUHU216HW,2014-01-12 07:29:00,
2014-01-11 23:34:00,44.8,41.5,30.15,North,0,0.0,0.0,88,0.00,,,0.00,WUHU216HW,2014-01-12 07:34:00,
2014-01-11 23:39:00,44.8,41.5,30.16,North,0,0.0,0.0,88,0.00,,,0.00,WUHU216HW,2014-01-12 07:39:00,
2014-01-11 23:44:00,44.6,41.3,30.16,North,0,0.0,0.0,88,0.00,,,0.00,WUHU216HW,2014-01-12 07:44:00,
2014-01-11 23:49:00,44.6,41.3,30.15,North,0,0.0,0.0,88,0.00,,,0.00,WUHU216HW,2014-01-12 07:49:00,
2014-01-11 23:54:00,44.6,41.3,30.15,North,0,0.0,0.0,88,0.00,,,0.00,WUHU216HW,2014-01-12 07:54:00,